EN

Hourly Weather Bolshie Yakentany

Today, 29 October, Thursday

Time Temperature Precipitation Wind Pressure Humidity
00:00 +11°C° 0 mm 3 mps 747 mmHg 86%
01:00 +11°C° 0 mm 3 mps 747 mmHg 86%
02:00 +11°C° 0 mm 4 mps 747 mmHg 89%
03:00 +11°C° 0 mm 3 mps 746 mmHg 90%
04:00 +11°C° 0 mm 3 mps 746 mmHg 91%
05:00 +10°C° 0 mm 3 mps 746 mmHg 92%
06:00 +10°C° 0.1 mm 3 mps 746 mmHg 92%
07:00 +10°C° 0.1 mm 3 mps 746 mmHg 92%
08:00 +10°C° 0.1 mm 3 mps 745 mmHg 93%
09:00 +10°C° 0.2 mm 3 mps 745 mmHg 92%
10:00 +10°C° 0.2 mm 3 mps 745 mmHg 92%
11:00 +11°C° 0.2 mm 3 mps 745 mmHg 91%
12:00 +11°C° 0.5 mm 3 mps 745 mmHg 91%
13:00 +11°C° 0.5 mm 3 mps 745 mmHg 91%
14:00 +11°C° 0.5 mm 3 mps 744 mmHg 91%
15:00 +10°C° 0.5 mm 2 mps 744 mmHg 92%
16:00 +10°C° 0.5 mm 2 mps 744 mmHg 93%
17:00 +10°C° 0.5 mm 2 mps 744 mmHg 94%
18:00 +10°C° 0.1 mm 2 mps 744 mmHg 94%
19:00 +10°C° 0.1 mm 2 mps 744 mmHg 94%
20:00 +9°C° 0.1 mm 2 mps 744 mmHg 94%
21:00 +9°C° 0 mm 2 mps 744 mmHg 94%
22:00 +9°C° 0 mm 2 mps 744 mmHg 94%
23:00 +8°C° 0 mm 2 mps 744 mmHg 94%

Tomorrow, 30 October, Friday

Time Temperature Precipitation Wind Pressure Humidity
00:00 +8°C° 0 mm 2 mps 744 mmHg 94%
01:00 +8°C° 0 mm 2 mps 744 mmHg 94%
02:00 +8°C° 0 mm 2 mps 745 mmHg 94%
03:00 +8°C° 0.1 mm 2 mps 744 mmHg 94%
04:00 +8°C° 0.1 mm 2 mps 744 mmHg 95%
05:00 +8°C° 0.1 mm 2 mps 744 mmHg 95%
06:00 +8°C° 0 mm 2 mps 745 mmHg 95%
07:00 +7°C° 0 mm 3 mps 745 mmHg 95%
08:00 +7°C° 0 mm 3 mps 745 mmHg 94%
09:00 +8°C° 0 mm 3 mps 745 mmHg 90%
10:00 +8°C° 0 mm 3 mps 745 mmHg 86%
11:00 +8°C° 0 mm 4 mps 745 mmHg 82%
12:00 +8°C° 0 mm 4 mps 745 mmHg 83%
13:00 +8°C° 0 mm 4 mps 745 mmHg 83%
14:00 +8°C° 0 mm 4 mps 745 mmHg 83%
15:00 +7°C° 0.1 mm 4 mps 745 mmHg 84%
16:00 +7°C° 0.1 mm 4 mps 745 mmHg 84%
17:00 +7°C° 0.1 mm 4 mps 745 mmHg 85%
18:00 +7°C° 0.3 mm 4 mps 745 mmHg 86%
19:00 +6°C° 0.3 mm 4 mps 745 mmHg 87%
20:00 +6°C° 0.3 mm 4 mps 746 mmHg 87%
21:00 +6°C° 0.9 mm 4 mps 746 mmHg 89%
22:00 +6°C° 0.9 mm 4 mps 746 mmHg 90%
23:00 +7°C° 0.9 mm 3 mps 746 mmHg 91%

Day after tomorrow, 31 October, Saturday

Time Temperature Precipitation Wind Pressure Humidity
00:00 +7°C° 0.5 mm 3 mps 746 mmHg 92%
01:00 +7°C° 0.5 mm 2 mps 746 mmHg 93%
02:00 +7°C° 0.5 mm 2 mps 746 mmHg 94%
03:00 +6°C° 0 mm 2 mps 746 mmHg 94%
04:00 +7°C° 0 mm 1 mps 747 mmHg 94%
05:00 +7°C° 0 mm 1 mps 747 mmHg 95%
06:00 +7°C° 0 mm 1 mps 748 mmHg 94%
07:00 +7°C° 0 mm 1 mps 748 mmHg 94%
08:00 +6°C° 0 mm 2 mps 749 mmHg 94%
09:00 +7°C° 0 mm 2 mps 749 mmHg 90%
10:00 +8°C° 0 mm 2 mps 750 mmHg 85%
11:00 +8°C° 0 mm 2 mps 751 mmHg 81%
12:00 +9°C° 0 mm 2 mps 751 mmHg 79%
13:00 +9°C° 0 mm 2 mps 751 mmHg 77%
14:00 +10°C° 0 mm 2 mps 752 mmHg 75%
15:00 +9°C° 0 mm 2 mps 752 mmHg 80%
16:00 +8°C° 0 mm 2 mps 752 mmHg 85%
17:00 +8°C° 0 mm 1 mps 752 mmHg 90%
18:00 +8°C° 0 mm 1 mps 753 mmHg 91%
19:00 +8°C° 0 mm 1 mps 753 mmHg 93%
20:00 +7°C° 0 mm 1 mps 754 mmHg 94%
21:00 +7°C° 0 mm 1 mps 754 mmHg 94%
22:00 +7°C° 0 mm 1 mps 754 mmHg 94%
23:00 +7°C° 0 mm 1 mps 754 mmHg 95%

1 November, Sunday

Time Temperature Precipitation Wind Pressure Humidity
00:00 +7°C° 0 mm 1 mps 755 mmHg 95%
01:00 +8°C° 0 mm 1 mps 755 mmHg 95%
02:00 +8°C° 0 mm 1 mps 755 mmHg 95%
03:00 +8°C° 0 mm 1 mps 755 mmHg 94%
04:00 +8°C° 0 mm 1 mps 755 mmHg 94%
05:00 +8°C° 0 mm 1 mps 755 mmHg 93%
06:00 +7°C° 0 mm 1 mps 755 mmHg 94%
07:00 +7°C° 0 mm 1 mps 755 mmHg 94%
08:00 +7°C° 0 mm 1 mps 755 mmHg 95%
09:00 +8°C° 0 mm 1 mps 755 mmHg 89%
10:00 +9°C° 0 mm 1 mps 755 mmHg 84%
11:00 +9°C° 0 mm 2 mps 755 mmHg 79%
12:00 +10°C° 0 mm 2 mps 755 mmHg 77%
13:00 +11°C° 0 mm 1 mps 755 mmHg 75%
14:00 +12°C° 0 mm 1 mps 755 mmHg 72%
15:00 +11°C° 0 mm 1 mps 755 mmHg 77%
16:00 +10°C° 0 mm 1 mps 754 mmHg 82%
17:00 +9°C° 0 mm 1 mps 754 mmHg 88%
18:00 +8°C° 0 mm 1 mps 754 mmHg 89%
19:00 +7°C° 0 mm 2 mps 754 mmHg 90%
20:00 +6°C° 0 mm 2 mps 754 mmHg 92%
21:00 +6°C° 0 mm 2 mps 754 mmHg 92%
22:00 +6°C° 0 mm 2 mps 754 mmHg 93%
23:00 +5°C° 0 mm 2 mps 754 mmHg 93%

2 November, Monday

Time Temperature Precipitation Wind Pressure Humidity
00:00 +5°C° 0 mm 2 mps 754 mmHg 93%
01:00 +5°C° 0 mm 2 mps 754 mmHg 92%
02:00 +5°C° 0 mm 2 mps 754 mmHg 91%
03:00 +5°C° 0 mm 2 mps 754 mmHg 92%
04:00 +5°C° 0 mm 2 mps 753 mmHg 92%
05:00 +5°C° 0 mm 2 mps 753 mmHg 92%
06:00 +5°C° 0 mm 2 mps 753 mmHg 92%
07:00 +5°C° 0 mm 2 mps 754 mmHg 92%
08:00 +5°C° 0 mm 2 mps 754 mmHg 93%
09:00 +5°C° 0 mm 3 mps 754 mmHg 87%
10:00 +7°C° 0 mm 3 mps 754 mmHg 82%
11:00 +8°C° 0 mm 4 mps 753 mmHg 77%
12:00 +9°C° 0 mm 3 mps 753 mmHg 76%
13:00 +9°C° 0 mm 3 mps 753 mmHg 75%
14:00 +10°C° 0 mm 3 mps 753 mmHg 74%
15:00 +9°C° 0 mm 3 mps 753 mmHg 79%
16:00 +7°C° 0 mm 3 mps 753 mmHg 84%
17:00 +6°C° 0 mm 2 mps 753 mmHg 89%
18:00 +5°C° 0 mm 3 mps 753 mmHg 89%
19:00 +5°C° 0 mm 3 mps 753 mmHg 90%
20:00 +5°C° 0 mm 3 mps 753 mmHg 90%
21:00 +4°C° 0 mm 3 mps 753 mmHg 90%
22:00 +4°C° 0 mm 3 mps 754 mmHg 91%
23:00 +4°C° 0 mm 3 mps 754 mmHg 92%

3 November, Tuesday

Time Temperature Precipitation Wind Pressure Humidity
00:00 +4°C° 0 mm 3 mps 754 mmHg 92%
01:00 +3°C° 0 mm 3 mps 754 mmHg 93%
02:00 +4°C° 0 mm 2 mps 754 mmHg 94%
03:00 +4°C° 0 mm 2 mps 754 mmHg 95%
04:00 +4°C° 0 mm 2 mps 754 mmHg 96%
05:00 +4°C° 0 mm 2 mps 754 mmHg 96%
06:00 +4°C° 0 mm 2 mps 754 mmHg 96%
07:00 +4°C° 0 mm 2 mps 754 mmHg 97%
08:00 +4°C° 0 mm 2 mps 754 mmHg 97%
09:00 +4°C° 0 mm 3 mps 754 mmHg 95%
10:00 +5°C° 0 mm 3 mps 755 mmHg 94%
11:00 +7°C° 0 mm 3 mps 755 mmHg 92%
12:00 +8°C° 0 mm 3 mps 755 mmHg 92%
13:00 +8°C° 0 mm 3 mps 755 mmHg 91%
14:00 +8°C° 0 mm 3 mps 755 mmHg 90%
15:00 +8°C° 0 mm 3 mps 755 mmHg 90%
16:00 +8°C° 0 mm 2 mps 755 mmHg 91%
17:00 +8°C° 0 mm 2 mps 755 mmHg 91%
18:00 +8°C° 0 mm 2 mps 755 mmHg 91%
19:00 +8°C° 0 mm 2 mps 755 mmHg 91%
20:00 +8°C° 0 mm 2 mps 755 mmHg 91%
21:00 +8°C° 0 mm 2 mps 755 mmHg 92%
22:00 +9°C° 0 mm 1 mps 755 mmHg 92%
23:00 +9°C° 0 mm 1 mps 755 mmHg 93%
Show more